User: anonymous
Location: Caltech
(34.1382°N, 118.1253°W)
Time: 03:19:05
(UTC-07:00)
Language:

UOSAT-12 - Orbit

View from above orbital plane
View from above orbital plane
View from above satellite
View from above satellite

Ground track
Ground track

The orbit data is extracted from the following two-line orbital elements,

1 25693U 99021A   14208.16311719  .00000091  00000-0  31076-4 0  5469
2 25693 064.5571 139.1894 0048673 283.3680 175.1765 14.79990275823837
Epoch (UTC): 27 July 2014 03:54:53
Eccentricity: 0.0048673
inclination: 64.5571°
perigee height: 595 km
apogee height: 663 km
right ascension of ascending node: 139.1894°
argument of perigee: 283.3680°
revolutions per day: 14.79990275
mean anomaly at epoch: 175.1765°
orbit number at epoch: 82383

The dashed part of the orbit path shows where the satellite is in the earth's shadow,  

DLR